星链-5502 (STARLINK-5502 )

导读 | 星芒AI

STARLINK-5502 是 SpaceX Starlink 项目中的一颗低轨通信卫星,属于第 55 批发射的星链卫星群。该卫星运行在约 550 公里的高度,旨在为全球用户提供高速互联网服务。Starlink 计划通过部署数千颗卫星,构建覆盖全球的宽带网络,尤其服务于偏远地区。STARLINK-5502 采用先进推进和通信技术,具备自动避撞功能,有助于提升星座运行的安全性和效率。

基本信息
目录编号:
55644
目录名称:
STARLINK-5502
国际标识:
2023-021S
轨道中心:
EARTH
卫星名称:
星链-5502
卫星全名:
星链-5502 (STARLINK-5502 )
卫星状态:
在轨 (已飞行1038 天)
发射日期:
2023-02-17 UTC
国别 :
美国 (US)
星等 :
--
轨道信息
数据来源 国际轨道数据
星历时间: 2025-12-21T12:55:16+0800
8小时前
查看轨道信息
半长轴: 6950.2km
偏心率: 0.0003088
轨道倾角: 70.000°
近地点辐角 270.334°
升交点赤经 22.408°
平近点角 89.747°
近地点: 569.916km
远地点: 574.21km
周期: 96.107分钟
每日圈数: 14.98328
详细信息
固有亮度:
5
最大亮度:
2.5
卫星平台:
Starlink v1.5
覆盖范围:
全球
运营商:
太空探索技术公司
运营商所在国:
美国
制造商(研发单位):
太空探索技术公司
制造商所在国:
美国
使用方式:
暂无
卫星简介
星链(Starlink)计划是由太空探索技术公司(SpaceX)提出的一个巨型低轨卫星互联网星座项目,计划在2019年至2024年间在太空搭建由约1.2万颗卫星组成的“星链”网络,其中1584颗将部署在地球上空550千米处的近地轨道,并从2020年开始工作。该卫星仍在工作。
2D轨道图
3D轨道图
轨道高度分析图
轨道倾角分析图
轨道综合分析图
查看轨道综合分析图